Flag for Australia Weather past 2 weeks in Sydney, New South Wales, Australia

Now
68 °F

Sunny.


Feels Like: 68 °F
Forecast: 53 / 66 °F
Wind: 13 mph from Northwest

Location: Sydney Airport

Current Time: Oct 2, 2014 at 11:02:51 AM

Latest Report: Oct 2, 2014 at 10:30 AM


Visibility: 10 mi

Pressure: 30.12 "Hg

Humidity: 28%

Dew point: 34 °F

Location of SydneyLocation

Historic Weather in Sydney — Graph

°F

Sydney temperature yesterday

Maximum temperature yesterday: 79 °F (at 12:00 AM)
Minimum temperature yesterday: 55 °F (at 11:00 PM)
Average temperature yesterday: 63 °F

Past Weeks' High & Low Weather Summary

 TemperatureHumidityPressure
High93 °F (Sep 30, 1:00 PM)94% (Sep 24, 3:00 AM)30.48 "Hg (Sep 24, 3:00 AM)
Low48 °F (Sep 19, 4:30 AM)9% (Sep 30, 4:00 PM)29.71 "Hg (Sep 30, 3:00 PM)
Average64 °F55%30.10 "Hg
* Reported Sep 17 10:00 AM — Oct 2 10:00 AM, Sydney, Weather by CustomWeather, © 2014

Note: Actual official high and low records may vary slightly from our data, if they occured in-between our weather recording intervals... More about our weather records

Advertising

Sydney weather history for previous 24 hours

 ConditionsComfort  
Time TempWeatherWind HumidityBarometerVisibility
10:00 AM
Oct 2
68 °FSunny.17 mph30%30.15 "Hg10 mi
9:30 AM66 °FSunny.14 mph37%30.15 "Hg10 mi
9:00 AM64 °FSunny.10 mph40%30.18 "Hg10 mi
8:30 AM63 °FSunny.9 mph42%30.18 "Hg10 mi
8:00 AM59 °FSunny.9 mph48%30.18 "Hg10 mi
7:30 AM57 °FPassing clouds.9 mph51%30.18 "HgN/A
7:00 AM55 °FPassing clouds.7 mph55%30.18 "HgN/A
6:30 AM54 °FPassing clouds.8 mph58%30.18 "HgN/A
6:00 AM52 °FPassing clouds.8 mph62%30.18 "HgN/A
5:30 AM52 °FPassing clouds.8 mph62%30.18 "HgN/A
5:00 AM52 °FPassing clouds.9 mph62%30.18 "HgN/A
4:30 AM52 °FClear.8 mph62%30.15 "Hg10 mi
4:00 AM52 °FClear.7 mph62%30.15 "Hg10 mi
3:30 AM52 °FClear.9 mph62%30.15 "Hg10 mi
3:00 AM52 °FClear.8 mph62%30.15 "Hg10 mi
2:30 AM52 °FClear.8 mph62%30.15 "Hg10 mi
2:00 AM54 °FClear.8 mph58%30.18 "Hg10 mi
1:30 AM54 °FClear.10 mph58%30.18 "Hg10 mi
1:00 AM54 °FClear.10 mph58%30.18 "Hg10 mi
12:30 AM55 °FClear.10 mph59%30.18 "Hg10 mi
12:00 AM55 °FClear.9 mph59%30.21 "Hg10 mi
11:30 PM
Oct 1
55 °FClear.10 mph59%30.21 "Hg10 mi
11:00 PM55 °FClear.10 mph55%30.18 "Hg10 mi
10:30 PM57 °FPassing clouds.9 mph51%30.21 "HgN/A
10:00 PM57 °FPassing clouds.10 mph55%30.21 "HgN/A
9:30 PM59 °FPassing clouds.13 mph51%30.18 "HgN/A
9:00 PM61 °FPassing clouds.12 mph52%30.18 "HgN/A
8:30 PM61 °FPassing clouds.14 mph48%30.18 "HgN/A
8:00 PM61 °FPassing clouds.15 mph48%30.15 "HgN/A
7:30 PM61 °FClear.16 mph45%30.15 "Hg10 mi
7:00 PM61 °FClear.16 mph48%30.15 "Hg10 mi
6:30 PM61 °FClear.16 mph45%30.12 "Hg10 mi
6:00 PM61 °FClear.18 mph39%30.12 "Hg10 mi
5:30 PM61 °FClear.18 mph42%30.12 "Hg10 mi
5:00 PM63 °FClear.20 mph39%30.12 "Hg10 mi
4:30 PM63 °FSunny.17 mph39%30.09 "Hg10 mi
3:00 PM63 °FSunny.21 mph37%30.07 "Hg10 mi
2:30 PM63 °FSunny.20 mph39%30.07 "Hg10 mi
2:00 PM64 °FSunny.20 mph37%30.07 "Hg10 mi
1:30 PM64 °FSunny.20 mph26%30.07 "Hg10 mi
1:00 PM64 °FSunny.20 mph30%30.07 "Hg10 mi
12:30 PM64 °FSunny.20 mph32%30.07 "Hg10 mi
12:00 PM64 °FSunny.21 mph28%30.07 "Hg10 mi
11:30 AM64 °FSunny.21 mph28%30.07 "Hg10 mi
11:00 AM63 °FSunny.21 mph30%30.07 "Hg10 mi
Weather by CustomWeather, © 2014

See weather overviewHow to use our weather pages